ATLAS 5 CENTAUR DEB, 52828

Orbit data source: Space-Track

ATLAS 5 CENTAUR DEB, 52828 is space debris in HEO originally from a launch on Wed, 17 Sep 2014 UTC launched from the Air Force Eastern Test Range (AFETR). Debris objects in space refer to the collection of defunct objects orbiting the Earth. Examples of debris include non-operational satellites, rocket bodies, and fragments generated from explosions, collisions, or faulty payload assembly.

Loading next visibility...
Identifier
52828, 2014-055DL
Orbit
HEO
Country
Flag of USUS
Related business
Flag of USUnited Launch Alliance/Lockheed Martin (US)
Manufacturer
Unknown
Mission
Spacecraft
Bus & Motor
Unknown
Mass
Unknown
Launch date (UTC)
2014-09-17 (12 years ago)
Launch vehicle
Unknown
Launch site
Air Force Eastern Test Range (AFETR)
Object type
Payload
Rocket body
Debris
Shape & HBR
Unknown shape, 1.1 m
Radar Cross Section
RCS unknown

Expand to show TLE details & history
Last TLE update: 2 days ago

TLE from 2 days ago
0 ATLAS 5 CENTAUR DEB
1 52828U 14055DL  26171.35824750 -.00000035  00000-0  00000+0 0  9999
2 52828  19.4024 170.0429 4688989 118.6307 296.1832  1.81207752 27124
Epoch: 2026-06-20T08:35Z
TLE epoch observation values (Epoch: 2026-06-20T08:35:52.584Z)
Latitude
Longitude
132.5048°
Altitude
22,185.373 km
Speed
3.726 km/s
True Right ascension
11h 20m 11s
True Declination
0° 00' 00"
Sunlit
Object was in daylight at epoch
Visualization orbit readout
Latitude
Unknown
Longitude
Unknown
Altitude
Unknown
Speed
Unknown
Apparent Right ascension
Unknown
Apparent Declination
Unknown
Sunlit
N/A
Visualization observer readout
Local Sidereal Time
21:34:55
Azimuth
Unknown
Elevation
Unknown
Doppler factor
Unknown
Orbital elements
Apogee altitude
35,370.104 km
Perigee altitude
8,716.528 km
Semi-major axis
28,421.453 km
Eccentricity
0.4689
Inclination
19.4024°
RAAN
170.0429°
Arg. of periapsis
118.6307°
True anomaly
241.43748°
Mean anomaly
296.1832°
Eccentric anomaly
269.31917°
Mean motion
0.45297 °/min
Orbital period
794.75 mins
BSTAR
0
Loading maneuver chart data...
Computing Atmospheric mass density...

Documentation

Showing up to 5 results
|